Regional Weather Roundup
Issued by NWS Northern Indiana

Home | Current Version | Previous Version | Text Only | Print | Product List | Glossary On
Versions: 1 2 3 4 5 6 7 8 9 10 11 12 13 14 15 16 17 18 19 20 21 22 23 24 25 26 27 28 29 30 31 32 33 34 35 36 37 38 39 40 41 42 43 44 45 46 47 48 49 50
000
ASUS43 KIWX 292000
RWRIWX

KIWX WEATHER ROUNDUP
NATIONAL WEATHER SERVICE NORTHERN INDIANA
400 PM EDT SUN MAR 29 2015

NOTE: "FAIR" INDICATES FEW OR NO CLOUDS BELOW 12,000 FEET WITH NO
SIGNIFICANT WEATHER AND/OR OBSTRUCTIONS TO VISIBILITY.

* THESE STATIONS ARE NOT UNDER NWS QUALITY CONTROL. THEY ALSO MAY NOT
  REPORT WEATHER SUCH AS PRECIPITATION OR FOG.

INZ001>027-292100-
NORTHERN INDIANA

CITY           SKY/WX    TMP DP  RH WIND       PRES   REMARKS
GARY*          CLOUDY    37  25  60 S22G33    29.87F
SOUTH BEND     LGT RAIN  38  25  59 S22G32    29.91F
ELKHART*       LGT RAIN  37  23  56 SW12G20   29.92F
GOSHEN         LGT RAIN  38  25  59 S23G31    29.92F
WARSAW*        LGT RAIN  37  28  70 S13G21    29.94S
ANGOLA*        PTSUNNY   41  19  42 S20       29.91F
FORT WAYNE     LGTSLEET  41  22  46 S20G28    29.96F
PERU/GRISSOM   LGT RAIN  39  29  67 S12       29.94F

$$
INZ028>050-292100-
CENTRAL INDIANA

CITY           SKY/WX    TMP DP  RH WIND       PRES   REMARKS
LAFAYETTE      CLOUDY    42  26  53 S14G23    29.95F
KOKOMO*          N/A     39  28  65 S16       29.96S
MUNCIE*        LGT RAIN  43  20  39 S15G29    29.97F
INDIANAPOLIS   CLOUDY    49  14  24 S25G32    29.95F

$$
MIZ043>046-050>051-056>058-064>065-071>073-077>080-292100-
SOUTHWEST LOWER MICHIGAN

CITY           SKY/WX    TMP DP  RH WIND       PRES   REMARKS
BATTLE CREEK   LGT RAIN  40  19  43 S22G31    29.87F
BENTON HARBOR  MIX PCPN  35  27  72 S17G29    29.83F WCI  25
HOLLAND        FLURRIES  35  28  75 S21G30    29.85S WCI  24
GRAND RAPIDS   LGT SNOW  36  25  64 SW20G29   29.86R
KALAMAZOO      LGT RAIN  37  25  61 S15G25    29.89S

$$
OHZ001>008-015>018-024>025-292100-
NORTHWEST OHIO

CITY           SKY/WX    TMP DP  RH WIND       PRES   REMARKS
DEFIANCE         N/A     44  21  40 S20G29    29.96
FINDLAY        CLOUDY    45  19  35 S26G35    30.00F
TOLEDO EXPRESS CLOUDY    44  15  31 S21G35    29.96F
TOLEDO METCALF CLOUDY    46  18  32 S23G32    29.98F
LIMA           CLOUDY    46  19  34 S21G32    30.00F

$$
AND FOR LAKE MICHIGAN COASTAL AND OPEN LAKE BUOY OBSERVATIONS

STATION/POSITION TEMP    WIND        PRES    VSBY  WAVE
                 AIR SEA DIR/SP/G                  HT/PER
                 (F)     (DEG/KT/KT) (MB)    (MI)  (FT/S)
CALUMET HARBOR    36     190/ 14/ 20 1010.3F
MICHIGAN CITY     36     170/ 22/ 31   N/A
BURNS HARBOR      37     180/ 22/ 31 1011.9R
SAINT JOSEPH      36     160/ 13     1012.2F

$$
&&


USA.gov is the U.S. government's official web portal to all federal, state and local government web resources and services.